Wind_Speed
5 5 5 6 7 9 11 13 15 16 18 20 21 22 23 24 24 25 26 26 26 27 27 27 28 28 27 27 27 27 27 28 27 27 26 27 27 26
6 5 5 6 7 8 10 12 14 15 17 18 19 20 22 22 23 24 26 26 26 27 27 27 28 28 28 27 27 28 28 28 28 28 27 27 27 27
6 5 5 5 6 7 9 11 13 14 16 17 19 20 21 22 22 23 25 26 26 27 27 27 27 28 29 28 28 29 28 28 29 29 29 29 29 29
6 6 5 5 6 6 8 10 12 14 15 16 18 19 20 22 22 23 24 25 26 26 27 28 28 27 28 29 29 29 29 28 29 30 30 30 30 30
7 6 5 4 5 6 7 10 11 13 14 15 16 17 19 20 22 23 23 24 26 27 27 27 28 28 29 29 29 30 29 29 30 30 30 31 31 31
7 6 5 5 5 6 7 8 10 12 13 15 16 17 18 20 21 22 23 23 24 25 26 27 28 28 29 30 30 31 31 31 30 30 31 32 32 32
8 7 6 6 7 7 7 9 10 11 12 13 15 16 18 19 21 21 22 22 23 24 25 26 27 27 28 29 30 31 31 31 31 31 32 33 33 33
9 9 8 8 8 8 8 9 10 11 12 13 14 15 16 18 20 21 21 22 23 24 25 25 25 26 27 28 29 30 31 31 32 32 33 33 34 34
11 10 9 8 9 9 10 10 10 11 12 13 14 14 16 18 18 20 21 21 22 24 24 25 26 27 27 27 28 29 30 30 32 32 33 34 35 35
12 12 11 10 10 10 11 11 12 12 13 14 14 14 15 17 18 19 21 21 22 23 24 25 25 26 27 27 28 29 30 30 32 32 33 34 35 35
15 14 13 12 12 11 12 12 13 13 14 15 15 15 16 17 19 19 20 21 21 22 23 24 25 25 25 26 27 28 28 29 30 31 32 32 33 34
17 16 15 15 14 13 14 14 14 15 15 15 16 17 18 18 18 19 20 20 21 21 23 24 25 25 25 26 27 28 28 28 29 30 31 31 33 34
20 19 18 17 17 16 16 16 16 16 17 17 17 18 19 19 20 20 21 21 22 22 23 24 24 25 25 25 26 27 27 28 28 29 30 31 32 33
23 21 20 20 20 19 18 18 19 19 19 19 19 20 20 21 21 22 22 23 23 23 24 24 25 25 26 26 27 28 28 29 29 29 29 30 31 32
25 24 24 23 23 22 22 21 22 22 21 21 21 22 22 23 23 23 24 24 24 24 24 25 25 26 27 27 28 28 29 29 30 30 30 31 32 33
29 28 27 26 26 25 25 25 24 24 24 24 24 24 24 24 25 25 25 25 26 26 26 27 27 27 28 29 29 30 30 30 31 32 32 33 34 35
32 31 30 30 29 29 28 27 27 27 27 26 27 27 26 26 26 26 26 26 27 27 28 28 28 29 29 30 31 31 31 32 32 33 34 35 35 36
35 34 33 33 32 31 30 30 29 29 29 29 29 28 28 28 28 28 28 28 28 28 28 29 29 29 30 30 31 32 32 33 33 34 35 36 36 37
38 37 36 35 35 34 33 32 32 31 31 31 30 30 30 29 29 29 29 30 30 30 30 30 30 31 31 31 32 32 33 33 34 35 35 35 36 37
40 39 38 38 37 36 35 35 34 33 33 32 32 32 32 31 31 31 31 31 31 31 31 31 32 32 32 32 33 33 34 34 35 35 35 36 36 37
42 41 40 39 39 38 37 36 36 35 35 35 34 34 33 33 32 32 32 32 32 32 32 32 32 33 34 34 34 34 35 35 35 35 36 36 37 38
43 42 42 41 40 39 38 37 37 36 36 36 36 35 35 34 34 33 33 33 33 33 33 33 33 34 34 34 34 35 35 36 36 36 36 37 37 38
44 44 43 42 42 41 39 38 38 38 37 37 37 37 36 35 35 34 34 34 34 33 33 33 33 34 34 34 34 35 35 36 36 37 37 37 38 38
Wind_Direction
315 298 276 257 245 237 232 229 224 222 224 224 224 224 224 226 226 227 226 226 227 229 230 231 233 234 237 240 242 243 243 242 243 245 248 247 247 250
318 302 281 261 247 238 231 229 225 224 225 226 226 225 226 226 228 228 226 226 228 230 232 234 237 238 239 241 243 243 245 245 244 246 249 251 252 253
319 309 291 267 249 244 230 226 227 227 227 228 227 226 225 225 227 229 228 228 230 232 234 236 238 238 239 241 243 244 247 248 248 249 250 252 254 256
327 317 301 279 257 250 234 229 229 228 230 231 230 228 227 228 229 229 229 231 232 235 236 238 239 239 240 242 244 245 248 250 250 250 250 252 254 256
327 322 306 285 265 260 241 235 232 230 230 232 231 231 230 231 231 232 232 233 235 237 238 239 240 242 242 242 245 246 248 250 252 251 251 253 255 257
324 316 301 283 270 265 250 242 237 235 233 234 234 234 233 233 233 234 235 236 237 239 240 242 243 245 244 245 247 248 250 252 253 254 254 254 256 258
324 313 302 288 275 271 260 249 242 239 239 239 236 236 234 235 236 236 238 239 241 241 243 244 245 248 248 248 249 251 252 253 255 257 257 257 258 259
316 314 304 292 281 273 265 255 246 241 241 239 238 238 236 237 238 238 240 240 243 243 244 245 248 248 250 251 252 253 254 256 258 259 259 259 259 260
307 304 303 294 285 276 266 258 251 245 244 243 239 241 241 239 240 241 242 244 247 247 247 249 250 251 251 252 253 254 257 258 259 259 259 260 260 260
299 296 294 290 286 279 269 262 257 251 248 247 243 244 245 243 243 245 246 246 247 247 249 251 251 254 254 256 257 258 258 259 260 260 260 261 262 261
290 290 287 284 283 279 272 266 261 257 254 252 250 249 249 248 247 247 249 250 252 250 250 252 254 256 257 258 258 259 261 262 263 262 263 263 263 264
284 284 283 280 277 275 272 268 264 261 258 256 255 255 254 254 253 252 253 254 255 255 255 256 258 259 260 260 261 262 262 263 264 264 264 264 265 265
280 278 277 275 273 271 269 267 265 263 260 258 258 258 258 259 258 257 257 257 259 259 258 258 260 261 262 263 265 265 265 265 265 266 266 266 267 268
275 274 272 271 271 270 268 266 264 263 263 262 261 260 260 261 262 261 261 261 262 263 261 259 260 261 263 265 266 266 266 265 266 267 268 268 269 270
271 270 268 267 267 267 266 265 264 264 263 263 263 262 262 262 263 263 262 261 261 263 263 264 265 263 264 265 266 267 267 268 269 269 269 270 271 272
268 268 267 266 265 266 265 265 265 265 264 263 263 263 264 263 263 264 264 263 262 263 264 266 267 267 267 267 268 268 269 270 271 271 271 272 272 273
265 265 265 265 264 265 265 265 265 264 265 265 264 265 265 265 265 264 264 265 265 264 265 266 267 268 269 269 269 269 269 270 271 272 273 273 274 275
263 264 264 264 264 264 265 265 265 265 264 264 265 265 264 265 265 266 266 266 266 266 267 268 269 270 270 271 271 270 270 271 272 273 274 274 275 276
262 262 262 262 263 263 263 264 264 264 264 264 264 265 264 264 265 265 266 267 267 267 267 268 270 270 271 272 273 273 273 274 275 276 276 277 277 278
260 260 260 261 261 262 263 263 263 263 263 264 263 263 264 265 265 265 266 267 267 267 268 269 270 271 272 273 274 275 275 276 277 277 278 279 279 280
258 257 258 259 260 261 261 262 262 262 262 262 263 263 264 264 265 265 265 266 266 267 268 269 270 271 273 274 274 275 276 277 278 278 279 280 281 281
257 256 256 257 258 259 259 260 260 261 261 261 262 262 263 264 265 265 265 266 267 268 268 269 270 271 273 274 275 276 276 278 279 279 280 281 282 283
256 255 255 255 256 257 258 258 259 259 260 261 262 262 262 264 265 265 266 266 267 268 269 270 270 271 272 274 275 276 277 278 279 279 280 281 282 283
Height
5786 5785 5785 5784 5785 5785 5786 5788 5790 5792 5795 5797 5800 5803 5806 5809 5812 5815 5818 5821 5824 5827 5830 5833 5836 5838 5841 5843 5845 5847 5849 5851 5853 5855 5856 5858 5859 5861
5785 5784 5783 5783 5783 5783 5784 5786 5787 5790 5792 5794 5796 5799 5802 5805 5807 5810 5813 5816 5819 5822 5825 5828 5830 5833 5835 5837 5840 5842 5844 5845 5847 5849 5851 5852 5853 5854
5784 5783 5782 5781 5782 5782 5783 5784 5785 5787 5789 5791 5793 5795 5798 5801 5803 5806 5808 5811 5814 5817 5820 5822 5824 5827 5829 5831 5833 5836 5837 5839 5841 5843 5844 5846 5847 5848
5783 5782 5781 5780 5780 5781 5781 5782 5783 5785 5786 5788 5790 5792 5794 5797 5799 5801 5804 5806 5809 5812 5814 5816 5819 5821 5823 5825 5827 5829 5831 5833 5834 5836 5837 5839 5840 5841
5783 5781 5780 5779 5779 5779 5779 5780 5781 5782 5783 5785 5786 5788 5791 5793 5795 5797 5799 5802 5804 5806 5808 5810 5812 5815 5816 5819 5821 5822 5824 5826 5827 5829 5830 5832 5833 5834
5782 5780 5779 5778 5778 5778 5778 5778 5779 5779 5781 5782 5784 5785 5787 5789 5791 5793 5795 5797 5799 5801 5803 5804 5806 5808 5810 5812 5814 5815 5817 5818 5820 5821 5823 5824 5825 5826
5781 5779 5778 5777 5777 5776 5776 5776 5777 5777 5778 5779 5780 5782 5783 5785 5787 5788 5790 5792 5793 5795 5797 5799 5800 5801 5803 5804 5806 5808 5809 5811 5812 5813 5814 5815 5816 5817
5779 5778 5777 5776 5775 5774 5774 5774 5774 5775 5775 5776 5777 5778 5779 5781 5782 5784 5785 5787 5789 5790 5791 5793 5794 5795 5796 5798 5799 5800 5802 5803 5804 5805 5806 5807 5807 5808
5777 5776 5774 5773 5773 5772 5772 5771 5771 5772 5772 5773 5773 5774 5775 5777 5778 5779 5780 5782 5783 5784 5786 5787 5788 5789 5790 5791 5792 5793 5794 5794 5795 5796 5797 5797 5798 5799
5774 5773 5772 5771 5770 5769 5769 5769 5768 5769 5769 5769 5770 5771 5771 5772 5773 5775 5775 5776 5777 5778 5779 5781 5781 5782 5783 5783 5784 5785 5786 5786 5787 5787 5788 5788 5789 5790
5771 5770 5769 5768 5767 5766 5766 5765 5765 5765 5765 5765 5766 5766 5767 5768 5768 5769 5770 5771 5772 5772 5773 5774 5775 5776 5776 5777 5777 5777 5778 5778 5778 5779 5779 5780 5780 5781
5767 5766 5765 5764 5763 5762 5762 5761 5761 5761 5761 5761 5762 5762 5762 5763 5763 5764 5765 5765 5766 5766 5767 5768 5768 5769 5769 5769 5769 5770 5770 5770 5771 5771 5771 5771 5771 5772
5761 5760 5760 5759 5758 5757 5757 5757 5757 5756 5757 5757 5757 5757 5757 5757 5758 5758 5759 5759 5760 5760 5761 5761 5761 5762 5762 5762 5762 5762 5762 5763 5763 5763 5763 5763 5763 5763
5754 5754 5754 5753 5752 5752 5752 5751 5751 5751 5751 5751 5751 5751 5751 5752 5752 5752 5752 5753 5753 5754 5754 5754 5754 5754 5755 5755 5755 5755 5754 5755 5755 5755 5755 5754 5754 5754
5747 5747 5746 5746 5745 5745 5745 5745 5744 5744 5744 5745 5745 5745 5745 5745 5745 5745 5746 5746 5746 5747 5747 5747 5747 5747 5747 5747 5747 5747 5746 5746 5746 5746 5746 5746 5745 5745
5737 5738 5738 5737 5737 5737 5737 5737 5737 5737 5737 5737 5737 5737 5737 5738 5738 5738 5738 5738 5739 5739 5739 5739 5739 5739 5739 5739 5739 5738 5738 5738 5737 5737 5737 5736 5736 5735
5727 5727 5728 5728 5728 5728 5729 5729 5729 5729 5729 5729 5729 5729 5730 5730 5730 5730 5730 5730 5730 5730 5730 5731 5731 5730 5730 5730 5730 5729 5729 5728 5728 5727 5727 5726 5725 5724
5715 5716 5717 5718 5718 5719 5719 5720 5720 5720 5720 5720 5720 5721 5721 5721 5721 5721 5721 5721 5722 5722 5722 5722 5722 5721 5721 5721 5721 5720 5719 5719 5718 5717 5716 5716 5715 5714
5703 5705 5706 5707 5707 5708 5709 5709 5710 5710 5710 5711 5711 5711 5711 5712 5712 5712 5712 5712 5713 5713 5713 5713 5712 5712 5712 5712 5711 5710 5710 5709 5708 5707 5706 5705 5704 5703
5690 5692 5693 5694 5695 5696 5697 5698 5699 5699 5700 5700 5700 5701 5701 5702 5702 5702 5702 5703 5703 5703 5703 5703 5703 5702 5702 5702 5701 5700 5699 5699 5698 5696 5695 5694 5693 5691
5676 5678 5679 5681 5683 5684 5685 5686 5687 5688 5688 5689 5689 5690 5691 5691 5692 5692 5692 5692 5693 5693 5693 5693 5692 5692 5691 5691 5691 5689 5689 5688 5687 5686 5684 5683 5682 5680
5661 5663 5665 5667 5669 5671 5672 5673 5674 5675 5676 5677 5678 5679 5679 5680 5681 5681 5681 5682 5682 5682 5682 5682 5681 5681 5681 5680 5680 5679 5678 5677 5675 5674 5673 5672 5670 5668
5645 5647 5650 5652 5655 5657 5658 5660 5661 5663 5664 5665 5666 5667 5668 5669 5669 5670 5670 5670 5671 5671 5671 5671 5670 5670 5669 5669 5668 5668 5667 5665 5664 5663 5662 5659 5658 5656